(52177) = 1996 TR15 = 2235 T-2

Discovered at Palomar on 1973-09-29 by C. J. van Houten, I. van Houten-Groeneveld, and T. Gehrels.

Orbit

Orbit type: Main Belt

Note: WebGL enabled browser required.

epoch2023-09-13.0
epoch JD2460200.5
perihelion date2019-11-21.54799
perihelion JD2458809.04799
argument of perihelion (°)195.50895
ascending node (°)174.43234
inclination (°)2.08885
eccentricity0.1520134
perihelion distance (AU)2.7300998
Tisserand w.r.t. Jupiter3.2
ΔV w.r.t. Earth (km/sec)10.3
semimajor axis (AU)3.2195084
mean anomaly (°)237.40384
mean daily motion (°/day)0.17061590
aphelion distance (AU)3.709
period (years)5.78
P-vector [x]0.98496793
P-vector [y]0.16210771
P-vector [z]0.05965961
Q-vector [x]-0.17270111
Q-vector [y]0.91709228
Q-vector [z]0.35932726
absolute magnitude14.97
phase slope0.15
uncertainty0
referenceMPO 776736
observations used718
oppositions21
arc length (days)18159
first opposition used1973
last opposition used2023
residual rms (arc-secs)0.72
perturbers coarse indicatorM-v
perturbers precise indicator003Ek
first observation date used1973-09-19.0
last observation date used2023-06-08.0
computer nameMPCLINUX
JD of orbit computation2456909.166796
perihelion JD uncertainty (days)8.3685E-05
argument of perihelion uncertainty (°)1.1458E-04
ascending node uncertainty (°)1.1352E-04
inclination uncertainty (°)4.9925E-06
eccentricity uncertainty 4.0186E-08
perihelion distance uncertainty (AU)1.2933E-07
Minimum Orbit Intersection Distances (in AU)
for orbit epoch: 2460200.5, reference: E2023-T87
Mercury2.37633
Venus2.00519
Earth1.72893
Mars1.31803
Jupiter1.74491
Saturn5.72788
Uranus14.7684
Neptune26.9203

Observations

735 total observations over interval: 1973 09 19.19948 – 2023 06 08.323911
These data are available for download (format description).

Date (UT) J2000 RA J2000 Dec Magn Location Ref
1973 09 19.19948 00 46 52.01 +04 20 36.9   675 – Palomar Mountain MPC 30359
1973 09 19.25006 00 46 50.06 +04 20 22.9   675 – Palomar Mountain MPC 30359
1973 09 20.26458 00 46 11.12 +04 15 12.1   675 – Palomar Mountain MPC 30359
1973 09 24.36181 00 43 26.96 +03 53 53.7   675 – Palomar Mountain MPC 30359
1973 09 24.42847 00 43 24.08 +03 53 33.7   675 – Palomar Mountain MPC 30359
1973 09 25.25642 00 42 50.23 +03 49 05.3   675 – Palomar Mountain MPC 30359
1973 09 25.32031 00 42 47.54 +03 48 44.7   675 – Palomar Mountain MPC 30359
1973 09 29.26632 00 40 00.89 +03 27 21.4   675 – Palomar Mountain MPC 30359
1973 09 29.33073 00 39 58.05 +03 26 59.4 19.2   675 – Palomar Mountain MPC 30359
1973 09 30.22257 00 39 20.10 +03 22 06.7   675 – Palomar Mountain MPC 30359
1973 09 30.28785 00 39 17.18 +03 21 43.3   675 – Palomar Mountain MPC 30359
1973 10 04.30208 00 36 24.66 +02 59 46.2   675 – Palomar Mountain MPC 30359
1973 10 04.36476 00 36 21.82 +02 59 27.0   675 – Palomar Mountain MPC 30359
1973 10 05.32917 00 35 40.75 +02 54 10.9   675 – Palomar Mountain MPC 30359
1973 10 05.39132 00 35 37.97 +02 53 50.3   675 – Palomar Mountain MPC 30359
1996 10 09.67184 00 39 03.49 +03 07 03.9   327 – Peking Observatory, Xinglong Station MPC 28136
1996 10 09.68537 00 39 02.88 +03 06 58.4   327 – Peking Observatory, Xinglong Station MPC 28136
1996 10 09.70010 00 39 02.25 +03 06 54.1 18.8 V 327 – Peking Observatory, Xinglong Station MPC 28136
1996 10 13.45305 00 36 26.84 +02 47 35.1 18.9 V 566 – Haleakala-NEAT/GEODSS MPC 28160
1996 10 13.46368 00 36 26.36 +02 47 32.2 19.1 V 566 – Haleakala-NEAT/GEODSS MPC 28160
1996 10 13.47213 00 36 26.01 +02 47 29.6 18.7 V 566 – Haleakala-NEAT/GEODSS MPC 28160
1996 10 14.62692 00 35 39.75 +02 41 41.5   327 – Peking Observatory, Xinglong Station MPC 28136
1996 10 14.63994 00 35 39.20 +02 41 37.9 18.9 V 327 – Peking Observatory, Xinglong Station MPC 28136
1996 10 14.65297 00 35 38.66 +02 41 33.9   327 – Peking Observatory, Xinglong Station MPC 28136
1999 02 08.45853 11 23 32.98 +03 17 39.8 20.2 V 691 – Steward Observatory, Kitt Peak-Spacewatch MPS 4022
1999 02 08.47941 11 23 32.34 +03 17 44.1 20.3 V 691 – Steward Observatory, Kitt Peak-Spacewatch MPS 4022
1999 02 08.50133 11 23 31.62 +03 17 48.5 20.1 V 691 – Steward Observatory, Kitt Peak-Spacewatch MPS 4022
1999 02 16.38624 11 19 10.04 +03 48 01.9 21.5 V 691 – Steward Observatory, Kitt Peak-Spacewatch MPS 81247
1999 02 16.40723 11 19 09.21 +03 48 07.3 22.1 V 691 – Steward Observatory, Kitt Peak-Spacewatch MPS 81247
1999 02 16.42799 11 19 08.46 +03 48 12.6 22.2 V 691 – Steward Observatory, Kitt Peak-Spacewatch MPS 81247
2000 05 04.23812 14 27 56.00 -12 27 28.0 20.4 V 691 – Steward Observatory, Kitt Peak-Spacewatch MPS 14807
2000 05 04.24277 14 27 55.79 -12 27 27.0 20.5 V 691 – Steward Observatory, Kitt Peak-Spacewatch MPS 14807
2000 05 04.24865 14 27 55.53 -12 27 25.6 20.5 V 691 – Steward Observatory, Kitt Peak-Spacewatch MPS 14807
2000 05 06.28133 14 26 26.60 -12 19 37.9 20.3 V 691 – Steward Observatory, Kitt Peak-Spacewatch MPS 14807
2000 05 06.28582 14 26 26.38 -12 19 37.1 20.3 V 691 – Steward Observatory, Kitt Peak-Spacewatch MPS 14807
2000 05 06.29043 14 26 26.15 -12 19 36.1 20.3 V 691 – Steward Observatory, Kitt Peak-Spacewatch MPS 14807
2002 10 02.40952 02 41 12.89 +13 46 40.2 19.8   704 – Lincoln Laboratory ETS, New Mexico MPS 64285
2002 10 02.42514 02 41 12.51 +13 46 38.0 19.6   704 – Lincoln Laboratory ETS, New Mexico MPS 64285
2002 10 02.44080 02 41 12.08 +13 46 34.7 19.5   704 – Lincoln Laboratory ETS, New Mexico MPS 64285
2002 10 02.45636 02 41 11.63 +13 46 32.0 19.2   704 – Lincoln Laboratory ETS, New Mexico MPS 64285
2002 10 09.33039 02 37 38.92 +13 23 01.6 19.5   704 – Lincoln Laboratory ETS, New Mexico MPS 64285
2002 10 09.34597 02 37 38.35 +13 22 58.4 19.3   704 – Lincoln Laboratory ETS, New Mexico MPS 64285
2002 10 09.36175 02 37 37.79 +13 22 54.8 18.9   704 – Lincoln Laboratory ETS, New Mexico MPS 64285
2002 10 09.37756 02 37 37.20 +13 22 50.9 19.2   704 – Lincoln Laboratory ETS, New Mexico MPS 64285
2002 10 09.39335 02 37 36.61 +13 22 48.0 19.1   704 – Lincoln Laboratory ETS, New Mexico MPS 64285
2002 10 11.33760 02 36 26.76 +13 15 24.6 20.4   704 – Lincoln Laboratory ETS, New Mexico MPS 64285
2002 10 11.35357 02 36 26.17 +13 15 19.7 19.9   704 – Lincoln Laboratory ETS, New Mexico MPS 64285
2002 10 11.36947 02 36 25.50 +13 15 16.5 20.2   704 – Lincoln Laboratory ETS, New Mexico MPS 64285
2002 10 11.38525 02 36 24.83 +13 15 12.4 19.9   704 – Lincoln Laboratory ETS, New Mexico MPS 64285
2002 11 01.25593 02 21 11.33 +11 45 05.0 18.4   704 – Lincoln Laboratory ETS, New Mexico MPS 66548
2002 11 01.27302 02 21 10.48 +11 44 59.1 18.6   704 – Lincoln Laboratory ETS, New Mexico MPS 66548
2002 11 01.29012 02 21 09.64 +11 44 55.7 19.3   704 – Lincoln Laboratory ETS, New Mexico MPS 66548
2002 11 01.30747 02 21 08.88 +11 44 51.1 18.7   704 – Lincoln Laboratory ETS, New Mexico MPS 66548
2002 11 01.32451 02 21 08.00 +11 44 47.2 18.4   704 – Lincoln Laboratory ETS, New Mexico MPS 66548
2002 11 06.23839 02 17 22.06 +11 23 24.7 18.6   704 – Lincoln Laboratory ETS, New Mexico MPS 66548
2002 11 06.25505 02 17 21.25 +11 23 19.6 19.2   704 – Lincoln Laboratory ETS, New Mexico MPS 66548
2002 11 06.27171 02 17 20.47 +11 23 15.8 19.2   704 – Lincoln Laboratory ETS, New Mexico MPS 66548
2002 11 06.28838 02 17 19.71 +11 23 11.0 19.2   704 – Lincoln Laboratory ETS, New Mexico MPS 66548
2002 11 06.30507 02 17 18.97 +11 23 07.6 19.3   704 – Lincoln Laboratory ETS, New Mexico MPS 66548
2002 11 06.47016 02 17 11.42 +11 22 26.0 19.7   608 – Haleakala-AMOS MPS 81811
2002 11 06.48113 02 17 10.91 +11 22 22.6 19.7   608 – Haleakala-AMOS MPS 81811
2002 11 06.49209 02 17 10.40 +11 22 20.1 19.6   608 – Haleakala-AMOS MPS 81811
2002 11 10.22650 02 14 25.96 +11 06 56.5 18.7   704 – Lincoln Laboratory ETS, New Mexico MPS 66548
2002 11 10.24224 02 14 25.15 +11 06 51.7 19.1   704 – Lincoln Laboratory ETS, New Mexico MPS 66548
2002 11 10.25799 02 14 24.47 +11 06 48.5 19.0   704 – Lincoln Laboratory ETS, New Mexico MPS 66548
2002 11 10.27374 02 14 23.85 +11 06 44.8 19.1   704 – Lincoln Laboratory ETS, New Mexico MPS 66548
2002 11 22.21775 02 06 50.12 +10 25 21.3 19.6   644 – Palomar Mountain/NEAT MPS 69422
2002 11 22.23874 02 06 49.42 +10 25 17.8 19.6   644 – Palomar Mountain/NEAT MPS 69423
2002 11 22.25990 02 06 48.68 +10 25 14.1 19.7   644 – Palomar Mountain/NEAT MPS 69423
2002 12 01.22846 02 02 50.24 +10 04 40.1 19.9   704 – Lincoln Laboratory ETS, New Mexico MPS 69423
2002 12 01.24395 02 02 49.87 +10 04 38.2 19.5   704 – Lincoln Laboratory ETS, New Mexico MPS 69423
2002 12 01.25927 02 02 49.55 +10 04 36.6 19.3 C 704 – Lincoln Laboratory ETS, New Mexico MPS 290858
2002 12 01.27446 02 02 49.27 +10 04 34.1 19.4   704 – Lincoln Laboratory ETS, New Mexico MPS 69423
2003 12 22.51067 08 34 04.25 +16 19 00.8 20.3 V 691 – Steward Observatory, Kitt Peak-Spacewatch MPS 95519
2003 12 22.52463 08 34 03.80 +16 19 02.5 20.3 V 691 – Steward Observatory, Kitt Peak-Spacewatch MPS 95519
2003 12 22.53890 08 34 03.37 +16 19 03.5 20.2 V 691 – Steward Observatory, Kitt Peak-Spacewatch MPS 95519
2003 12 29.31216 08 30 14.74 +16 31 37.3 19.3 R 699 – Lowell Observatory-LONEOS MPS 96269
2003 12 29.32877 08 30 14.14 +16 31 40.2   699 – Lowell Observatory-LONEOS MPS 96269
2003 12 29.34542 08 30 13.45 +16 31 41.6   699 – Lowell Observatory-LONEOS MPS 96269
2003 12 29.36203 08 30 12.85 +16 31 41.6   699 – Lowell Observatory-LONEOS MPS 96269
2004 01 15.46852 08 17 40.81 +17 15 09.0 19.8 V 691 – Steward Observatory, Kitt Peak-Spacewatch MPS 96804
2004 01 15.49590 08 17 39.46 +17 15 13.7 19.9 V 691 – Steward Observatory, Kitt Peak-Spacewatch MPS 96804
2004 01 15.52347 08 17 38.12 +17 15 18.1 20.0 V 691 – Steward Observatory, Kitt Peak-Spacewatch MPS 96804
2004 01 21.30506 08 12 53.82 +17 32 03.3 19.4   704 – Lincoln Laboratory ETS, New Mexico MPS 97476
2004 01 21.31795 08 12 53.18 +17 32 04.8 19.2   704 – Lincoln Laboratory ETS, New Mexico MPS 97476
2004 01 21.33130 08 12 52.48 +17 32 08.3 19.4   704 – Lincoln Laboratory ETS, New Mexico MPS 97476
